TIANTONG-1 3

Last updated on Sun Apr 12 2026 00:02:55 GMT+0000 (Coordinated Universal Time)

1 47321U 21003A 26101.39426983 -.00000155 00000+0 00000+0 0 9997 2 47321 1.8154 335.2610 0003316 53.1019 34.7371 1.00272935 19295
UTC large
Height (km)
Speed (km/s)
/
Latitude / Longitude
Inclination (degrees)
Orbital Period (minutes)
Azimuth
Elevation
Range (km)
Doppler Factor

Next 0 passes for location: London (51.5072 / 0.1276)

Sorry there are no passes over London.
TIANTONG-1 3